World > North America > United States > Pennsylvania

Chambersville, Pennsylvania Regional Weather

Lat: 40.71N, Lon: 79.16W
Wx Zone: PAZ023Web Search

If you are on your PC, you can easily pass this page to your phone by scanning the QR Code near the bottom with your camera.

Feedback


°F Click to change Chambersville hourly weather to Imperial units.Click to change Chambersville hourly weather to Metric units. °C
Chambersville Weather Map
UTC Time: 5/6/2021, 02:51
Your Time:

Chambersville, PA Regional Weather

Expires:202105060300;;661288
ASUS41 KCTP 060210
RWRCTP

REGIONAL WEATHER ROUNDUP
NATIONAL WEATHER SERVICE STATE COLLEGE PA
1000 PM EDT WED MAY 05 2021

Note: "fair" indicates few or no clouds below 12,000 feet with no 
significant weather and/or obstructions to visibility.

* = STATION THAT DOES NOT REPORT PRECIPITATION /E.G. RAIN...SNOW...ETC/
    THUNDER OR FOG.


PAZ002>004-007>009-013>016-020>023-029>032-060300-
WESTERN PENNSYLVANIA
  
CITY           SKY/WX    TMP DP  RH WIND       PRES   REMARKS
ERIE           MOCLDY    47  39  74 W8        30.09R                  
MEADVILLE      CLOUDY    42  38  85 W7        30.08R                  
FRANKLIN       CLOUDY    43  37  79 NW6       30.07R                  
NEW CASTLE     MOCLDY    44  41  89 W6        30.10R                  
BEAVER COUNTY  CLOUDY    44  41  90 NW3       30.09R                  
BUTLER         MOCLDY    43  40  89 W3        30.08R                  
PITTSBURGH INT MOCLDY    45  39  79 NW10      30.08R                  
PITTSBURGH     MOCLDY    46  39  76 NW6       30.07R                  
INDIANA*       CLOUDY    45  41  87 NW7       30.08R                  
LATROBE        CLOUDY    46  41  81 W7        30.06R                  
WASHINGTON CO* MOCLDY    45  38  76 NW10G17   30.12R                  
$$


SKY/WX - Weather  TMP - Temperature  DP - Dew Point  RH - Relative Humidity
WIND - Wind Direction/Speed PRES - Barometric Pressure VSB - Visibility
WCI - Wind Chill Index E13G22 Wind - East Wind 13 mph/Gusts of 22 mph